Regional Weather Roundup
Issued by NWS San Angelo, TX

Home | Current Version | Previous Version | Text Only | Print | Product List | Glossary On
Versions: 1 2 3 4 5 6 7 8 9 10 11 12 13 14 15 16 17 18 19 20 21 22 23 24 25 26 27 28 29 30 31 32 33 34 35 36 37 38 39 40 41 42 43 44 45 46 47 48 49 50
000
ASUS44 KSJT 301302
RWRSJT
WEST CENTRAL TEXAS REGIONAL WEATHER ROUNDUP
NATIONAL WEATHER SERVICE SAN ANGELO TX
800 AM CDT TUE AUG 30 2016

NOTE: "FAIR" INDICATES FEW OR NO CLOUDS BELOW 12,000 FEET WITH NO
SIGNIFICANT WEATHER AND/OR OBSTRUCTIONS TO VISIBILITY.

TXZ049-054-064>066-071>073-076>078-098-099-113-114-127-128-139-140-
154-155-168>170-301400
...LOCATIONS ACROSS WEST CENTRAL TEXAS...

CITY           SKY/WX    TMP DP  RH WIND       PRES   REMARKS
SAN ANGELO     CLOUDY    72  69  90 CALM      30.10R
ABILENE        PTCLDY    71  68  90 NE5       30.12R
DYESS AFB      CLOUDY    71  69  95 N5        30.11R
JUNCTION       MOCLDY    71  68  90 CALM      30.08R
SWEETWATER     CLOUDY    70  70 100 N6        30.17S
BROWNWOOD      CLEAR     70  68  94 N5        30.08S
COLEMAN        SUNNY     71  68  91 N5        30.10S
SONORA         PTCLDY    70  68  94 NE3       30.14R
OZONA          NOT AVBL
BRADY          NOT AVBL
$$

TEXAS PANHANDLE/OKLAHOMA PANHANDLE

CITY           SKY/WX    TMP DP  RH WIND       PRES   REMARKS
AMARILLO       CLOUDY    65  64  97 N5        30.25S
BORGER         CLOUDY    67  66  97 E3        30.24R
CANADIAN       CLOUDY    67  67  99 CALM      30.20S
DALHART        CLOUDY    64  60  87 W5        30.29R FOG
DUMAS          FOG       64  63  97 CALM      30.27R VSB 1/4
GUYMON         NOT AVBL
HEREFORD       RAIN      65  65  99 N8        30.27S
PAMPA          NOT AVBL
PERRYTON       CLOUDY    67  65  96 CALM      30.22S
$$

SOUTHERN PANHANDLE/SOUTH PLAINS/ROLLING PLAINS

CITY           SKY/WX    TMP DP  RH WIND       PRES   REMARKS
LUBBOCK        CLOUDY    66  64  93 NE8       30.21R
SNYDER           N/A     69  67  92 NE5       30.16S
CHILDRESS      CLEAR     71  67  87 N7        30.16R
SEMINOLE       NOT AVBL
$$

PERMIAN BASIN

CITY           SKY/WX    TMP DP  RH WIND       PRES   REMARKS
MIDLAND        PTCLDY    70  66  87 E8        30.15R
ODESSA         PTCLDY    69  66  90 NE7       30.17R FOG
WINK           CLOUDY    68  67  96 N3        30.13R
$$

FAR WEST/SOUTHWEST MOUNTAINS/TRANS PECOS

CITY           SKY/WX    TMP DP  RH WIND       PRES   REMARKS
ALPINE         CLOUDY    63  62  95 NE3       30.26S
DRYDEN           N/A     70  70 100 N5        30.07R
EL PASO        MOCLDY    70  61  73 NE7       30.18R
FORT STOCKTON  CLOUDY    68  68 100 NW3       30.14R FOG
GUADALUPE PASS NOT AVBL
MARFA          CLOUDY   N/A N/A N/A NE9       30.22S
PECOS          CLOUDY    69  68  95 N7        30.12F
$$

DALLAS/FORT WORTH METROPLEX

CITY           SKY/WX    TMP DP  RH WIND       PRES   REMARKS
DFW AIRPORT    MOSUNNY   78  72  81 N5        30.05R
FTW MEACHAM    MOSUNNY   77  71  82 CALM      30.05S
DAL-EXECUTIVE  CLOUDY    76  72  87 CALM      30.05R
GRAND PRAIRIE  NOT AVBL
ADDISON        MOSUNNY   77  73  88 CALM      30.06S
MESQUITE       SUNNY     73  73 100 CALM      30.05R
LANCASTER      CLOUDY    75  71  87 CALM      30.05S
$$

NORTH CENTRAL TEXAS

CITY           SKY/WX    TMP DP  RH WIND       PRES   REMARKS
SHRMAN/DENISON NOT AVBL
GAINESVILLE      N/A     73  71  95 CALM      30.10S
BRIDGEPORT     SUNNY     72  72 100 CALM      30.10R
DENTON         SUNNY     73  72  96 N5        30.06S
WAXAHACHIE     PTSUNNY   72  72 100 CALM      30.06S
GRANBURY       NOT AVBL
$$

WESTERN NORTH TEXAS

CITY           SKY/WX    TMP DP  RH WIND       PRES   REMARKS
WICHITA FALLS  MOSUNNY   74  69  85 NE3       30.10R
VERNON         PTSUNNY   73  67  81 N3        30.13R
BRECKENRIDGE   NOT AVBL
COMANCHE       PTCLDY    69  69 100 N3        30.08S
$$

CENTRAL AND SOUTH CENTRAL TEXAS

CITY           SKY/WX    TMP DP  RH WIND       PRES   REMARKS
AUSTIN/BERGSTM CLOUDY    75  73  93 N7        30.01R
WACO           SUNNY     73  72  96 N7        30.04R
HILLSBORO      SUNNY     71  70  98 NW3       30.05R
TEMPLE         SUNNY     72  71  97 N6        30.04R
KILLEEN-GRAY   MOSUNNY   71  70  98 NE8       30.04R
FORT HOOD      MOSUNNY   70  69  97 N5        30.03R
GEORGETOWN     CLOUDY    72  70  94 N9        30.04R
LAGO VISTA     CLOUDY    72  71  96 NE8       30.05S FOG
SAN MARCOS     PTSUNNY   73  72  94 NE9       30.03R
NEW BRAUNFELS  CLOUDY    74  72  93 NE8       29.99R
RANDOLPH AFB   NOT AVBL
SAN ANTONIO    CLOUDY    75  71  87 N7        30.00R
STINSON        CLOUDY    77  72  84 N8        29.97R
PLEASANTON     NOT AVBL
LA GRANGE      CLOUDY    75  74  96 N5        29.97R
GIDDINGS       NOT AVBL
$$

EAST TEXAS

CITY           SKY/WX    TMP DP  RH WIND       PRES   REMARKS
PARIS          SUNNY     75  72  88 NE5       30.06S
CLARKSVILLE    NOT AVBL
TYLER          SUNNY     75  72  90 N5        30.03R
LONGVIEW       SUNNY     73  72  96 CALM      30.02R
PALESTINE      SUNNY     75  71  87 CALM      30.03R
NACOGDOCHES    SUNNY    N/A N/A N/A N5        30.00R
$$

TEXAS HILL COUNTRY AND EDWARDS PLATEAU

CITY           SKY/WX    TMP DP  RH WIND       PRES   REMARKS
LLANO          NOT AVBL
HORSESHOE BAY  CLOUDY    73  71  93 N3        30.05S
KERRVILLE      MOCLDY    72  70  95 NW5       30.05S FOG
FREDERICKSBRG  NOT AVBL
ROCKSPRINGS    CLOUDY    70  68  94 NE3       30.11R
HONDO          PTCLDY    74  71  91 NE7       30.01R
UVALDE         MOSUNNY   72  70  93 CALM      30.02S
DEL RIO        CLOUDY    75  72  90 NE5       30.01S
$$

SOUTHEAST TEXAS

CITY           SKY/WX    TMP DP  RH WIND       PRES   REMARKS
COLLEGE STN    MOSUNNY   73  71  93 N8        30.01R
CALDWELL       NOT AVBL
CROCKETT       NOT AVBL
BRENHAM        NOT AVBL
HUNTSVILLE     CLOUDY    72  70  93 CALM      30.00S
CONROE         CLOUDY    76  72  87 VRB5      29.99R
HOUSTON BUSH   CLOUDY    76  71  85 NE9       29.97R
HOUSTON HOBBY  CLOUDY    77  72  84 N6        29.96R
PERLAND        CLOUDY    78  74  87 NE6       29.97R
WHARTON        CLOUDY    76  73  93 N6        29.96S
$$

THE UPPER TEXAS COAST

CITY           SKY/WX    TMP DP  RH WIND       PRES   REMARKS
ORANGE         CLOUDY    74  72  92 N3        29.98S
PORT ARTHUR    CLOUDY    76  70  82 NE8       29.95S
GALVESTON      CLOUDY    79  75  87 NE9       29.95R
ANGLETON       CLOUDY    79  76  90 N8        29.94R
BAY CITY       CLOUDY    77  76  98 NE8       29.94R
$$

TEXAS COASTAL BEND, RIO GRANDE PLAINS DEEP SOUTH TEXAS

CITY           SKY/WX    TMP DP  RH WIND       PRES   REMARKS
VICTORIA       LGT RAIN  73  72  96 N8        29.95R
BEEVILLE       CLOUDY    75  75 100 NE7       29.93S
ROCKPORT       NOT AVBL
PORT ARANSAS   TSTM      75  74  98 E6        29.90F
PORT LAVACA    CLOUDY    75  75  99 CALM      29.94R
CORPUS CHRISTI RAIN      76  76 100 N10       29.90R FOG
KINGSVILLE NAS LGT RAIN  76  76 100 N8        29.89S FOG
COTULLA        LGT RAIN  77  72  84 NE7       29.97R
LAREDO         CLOUDY    77  73  87 N8        29.97R
BROWNSVILLE    MOSUNNY   78  75  90 NW9       29.88R
PORT ISABEL    MOSUNNY   78  74  87 NW7       29.88R
HEBBRONVILLE   NOT AVBL
MCALLEN        CLOUDY    80  74  81 NW10      29.90S
WESLACO        CLOUDY    72 -25   2 NW7       29.89R
FALFURRIAS     CLOUDY    77  73  88 N5        29.90S
EDINBURG       PTSUNNY   79  73  83 NW8       29.90R
$$



USA.gov is the U.S. government's official web portal to all federal, state and local government web resources and services.